BEIDOU-2 G5 (38091 NORAD) Tracking and Keplerian Element Data

This shows tracking and keplerian element data for the satellite.

Feedback or suggestion? Click here.




ElementValue
Catalog38091
NameBEIDOU-2 G5
Epoch Orbit5056
Epoch Day353.66911748
Epoch Year2025
RAAN70.6861
Inclination3.1258
Eccentricity0.0012969
Argument of Perigee231.3522
Mean Anonmoly86.1393
Mean Motion1.00268606
Decay Rate7.9E-07
L11 38091U 12008A 25353.66911748 .00000079 00000+0 00000+0 0 9996
L22 38091 3.1258 70.6861 0012969 231.3522 86.1393 1.00268606 50560



Live tracking and technical data element details for BEIDOU-2 G5 (NORAD 38091). BEIDOU-2 G5 can be tracked NOW for your location showing map with azimuth and elevation plus other details from your city location.







IsCatalogInMostPopularTable: catalog: 38091, numindb: 598
Update: records affected: 1



GetName: 38091 BEIDOU-2 G5

Hit Count: updated at: Sat, 07 Mar 2026 07:09:11 GMT